COSMOS 1275 DEB, 42182

Orbit data source: Space-Track

COSMOS 1275 DEB, 42182 is space debris in LEO originally from a launch on Thu, 04 Jun 1981 UTC launched from the Plesetsk Missile And Space Complex (PKMTR). Debris objects in space refer to the collection of defunct objects orbiting the Earth. Examples of debris include non-operational satellites, rocket bodies, and fragments generated from explosions, collisions, or faulty payload assembly.

Loading next visibility...
Identifier
42182, 1981-053SW
Orbit
LEO
Country
Flag of CISCIS
Related business
Manufacturer
Unknown
Mission
Spacecraft
Bus & Motor
Unknown
Mass
Unknown
Launch date (UTC)
1981-06-04 (45 years ago)
Launch vehicle
Unknown
Launch site
Plesetsk Missile And Space Complex (PKMTR)
Object type
Payload
Rocket body
Debris
Shape & HBR
Unknown shape, 0.1 m
Radar Cross Section
Small (<0.1 m²)

Expand to show TLE details & history
Last TLE update: 2 days ago

TLE from 2 days ago
0 COSMOS 1275 DEB
1 42182U 81053SW  26171.15257850  .00000685  00000-0  80883-3 0  9993
2 42182  82.9531 315.7285 0129294 234.8918 300.2217 13.63127431611644
Epoch: 2026-06-20T03:39Z
TLE epoch observation values (Epoch: 2026-06-20T03:39:42.782Z)
Latitude
6.05254°
Longitude
171.68184°
Altitude
979.4 km
Speed
7.386 km/s
True Right ascension
08h 59m 55s
True Declination
6° 01' 04"
Sunlit
Object was in daylight at epoch
Visualization orbit readout
Latitude
Unknown
Longitude
Unknown
Altitude
Unknown
Speed
Unknown
Apparent Right ascension
Unknown
Apparent Declination
Unknown
Sunlit
N/A
Visualization observer readout
Local Sidereal Time
10:08:08
Azimuth
Unknown
Elevation
Unknown
Doppler factor
Unknown
Orbital elements
Apogee altitude
1,117.185 km
Perigee altitude
925.839 km
Semi-major axis
7,399.649 km
Eccentricity
0.01293
Inclination
82.9531°
RAAN
315.7285°
Arg. of periapsis
234.8918°
True anomaly
298.93109°
Mean anomaly
300.2217°
Eccentric anomaly
299.57743°
Mean motion
3.40978 °/min
Orbital period
105.58 mins
BSTAR
0.00080883
Loading maneuver chart data...
Computing Atmospheric mass density...
Loading historical data...
Loading historical data...
Loading historical data...
Loading historical data...
Loading historical data...
Loading historical data...
Loading historical data...

Documentation

Showing up to 5 results
|